This demonstration page uses our WeatherBlox Daily Observations layout. Learn more.

Left ArrowRight Arrow

Hourly Observations for November 1, 2021

Temp ( °F °C ) Dew Point ( °F °C ) Humidity (%) Winds ( mph kmh ) Pressure ( in mb ) Visibility ( mi km ) Precip ( " mm )
12:15 am 00:15 Clear 57 14 45 7 63 63 W 7 11 29.97 1015 10 16 N/A
12:35 am 00:35 Clear 55 13 45 7 67 67 W 12 19 29.97 1015 10 16 N/A
12:55 am 00:55 Clear 55 13 45 7 67 67 WSW 5 7 29.97 1015 10 16 N/A
1:15 am 01:15 Partly Cloudy 54 12 45 7 72 72 S 3 6 29.97 1015 10 16 N/A
1:35 am 01:35 Mostly Cloudy 54 12 45 7 72 72 W 6 9 29.97 1015 10 16 N/A
1:55 am 01:55 Cloudy 55 13 45 7 67 67 SW 3 6 29.98 1015 10 16 N/A
2:15 am 02:15 Cloudy 54 12 46 8 77 77 SSW 5 7 29.99 1016 10 16 N/A
2:35 am 02:35 Mostly Cloudy 54 12 46 8 77 77 SSW 6 9 29.98 1015 10 16 N/A
2:55 am 02:55 Mostly Cloudy 52 11 45 7 77 77 WSW 5 7 30.00 1016 10 16 N/A
3:15 am 03:15 Cloudy 54 12 45 7 72 72 WSW 3 6 30.00 1016 10 16 N/A
3:35 am 03:35 Mostly Cloudy 52 11 46 8 82 82 N N/A 30.00 1016 10 16 N/A
3:55 am 03:55 Partly Cloudy 50 10 46 8 88 88 WSW 7 11 30.02 1016 10 16 N/A
4:15 am 04:15 Partly Cloudy 50 10 45 7 82 82 WSW 3 6 30.03 1017 10 16 N/A
4:35 am 04:35 Clear 50 10 45 7 82 82 WNW 9 15 30.03 1017 10 16 N/A
4:55 am 04:55 Clear 54 12 46 8 77 77 WNW 10 17 30.02 1017 10 16 N/A
5:15 am 05:15 Clear 54 12 46 8 77 77 WNW 15 24 30.03 1017 10 16 N/A
5:35 am 05:35 Clear 54 12 46 8 77 77 WNW 8 13 30.05 1018 10 16 N/A
5:55 am 05:55 Clear 55 13 45 7 67 67 WNW 9 15 30.06 1018 10 16 N/A
6:15 am 06:15 Partly Cloudy 54 12 45 7 72 72 W 9 15 30.07 1018 10 16 N/A
6:35 am 06:35 Clear 54 12 45 7 72 72 W 10 17 30.07 1018 10 16 N/A
6:55 am 06:55 Partly Cloudy 54 12 45 7 72 72 W 8 13 30.08 1019 10 16 N/A
7:15 am 07:15 Mostly Cloudy 54 12 43 6 67 67 WSW 3 6 30.09 1019 10 16 N/A
7:35 am 07:35 Partly Cloudy 52 11 45 7 77 77 WNW 8 13 30.10 1019 10 16 N/A
7:55 am 07:55 Partly Cloudy 54 12 43 6 67 67 NW 9 15 30.12 1020 10 16 N/A
8:15 am 08:15 Partly Cloudy 54 12 43 6 67 67 NNW 12 19 30.14 1021 10 16 N/A
8:35 am 08:35 Partly Cloudy 54 12 45 7 72 72 NNW 14 22 30.15 1021 10 16 N/A
8:55 am 08:55 Partly Cloudy 55 13 45 7 67 67 NNW 17 28 30.17 1022 10 16 N/A
9:15 am 09:15 Sunny 54 12 43 6 67 67 NNW 13 20 30.18 1022 10 16 N/A
9:35 am 09:35 Sunny 55 13 41 5 59 59 NNW 10 17 30.19 1022 10 16 N/A
9:55 am 09:55 Sunny 55 13 39 4 55 55 NNW 12 19 30.20 1023 10 16 N/A
10:15 am 10:15 Sunny 55 13 37 3 51 51 NNW 15 24 30.20 1023 10 16 N/A
10:35 am 10:35 Sunny 55 13 37 3 51 51 NNW 15 24 30.21 1023 10 16 N/A
10:55 am 10:55 Sunny 55 13 37 3 51 51 NNW 16 26 30.21 1023 10 16 N/A
11:15 am 11:15 Sunny 55 13 37 3 51 51 NNW 20 31 30.21 1023 10 16 N/A
11:35 am 11:35 Sunny 55 13 37 3 51 51 N 10 17 30.22 1023 10 16 N/A
11:55 am 11:55 Sunny 55 13 37 3 51 51 N 12 19 30.22 1023 10 16 N/A
12:15 pm 12:15 Sunny 57 14 37 3 48 48 NW 13 20 30.22 1023 10 16 N/A
12:35 pm 12:35 Sunny 59 15 37 3 45 45 NW 14 22 30.22 1023 10 16 N/A
12:55 pm 12:55 Sunny 59 15 37 3 45 45 NW 8 13 30.21 1023 10 16 N/A
1:15 pm 13:15 Sunny 59 15 36 2 42 42 NNW 15 24 30.20 1023 10 16 N/A
1:35 pm 13:35 Sunny 59 15 37 3 45 45 NW 12 19 30.20 1023 10 16 N/A
1:55 pm 13:55 Sunny 59 15 36 2 42 42 NW 7 11 30.19 1022 10 16 N/A
2:15 pm 14:15 Sunny 59 15 37 3 45 45 WNW 8 13 30.19 1022 10 16 N/A
2:35 pm 14:35 Sunny 59 15 37 3 45 45 NNW 9 15 30.18 1022 10 16 N/A
2:55 pm 14:55 Sunny 59 15 37 3 45 45 NNW 15 24 30.18 1022 10 16 N/A
3:15 pm 15:15 Sunny 61 16 37 3 42 42 NNW 9 15 30.18 1022 10 16 N/A
3:35 pm 15:35 Sunny 61 16 37 3 42 42 WNW 7 11 30.18 1022 10 16 N/A
3:55 pm 15:55 Sunny 59 15 36 2 42 42 WNW 13 20 30.17 1022 10 16 N/A
4:15 pm 16:15 Sunny 59 15 37 3 45 45 NNW 10 17 30.18 1022 10 16 N/A
4:35 pm 16:35 Sunny 59 15 36 2 42 42 NNW 9 15 30.17 1022 10 16 N/A
4:55 pm 16:55 Sunny 59 15 36 2 42 42 NW 9 15 30.17 1022 10 16 N/A
5:15 pm 17:15 Sunny 59 15 36 2 42 42 NW 8 13 30.17 1022 10 16 N/A
5:35 pm 17:35 Sunny 59 15 34 1 39 39 WNW 7 11 30.18 1022 10 16 N/A
5:55 pm 17:55 Sunny 55 13 36 2 47 47 NW 5 7 30.18 1022 10 16 N/A
6:15 pm 18:15 Clear 55 13 34 1 44 44 NW 3 6 30.18 1022 10 16 N/A
6:35 pm 18:35 Clear 54 12 36 2 51 51 N N/A 30.18 1022 10 16 N/A
6:55 pm 18:55 Clear 52 11 37 3 58 58 N N/A 30.19 1023 10 16 N/A
7:15 pm 19:15 Clear 52 11 37 3 58 58 N N/A 30.19 1023 10 16 N/A
7:35 pm 19:35 Clear 50 10 37 3 62 62 NNW 3 6 30.21 1023 10 16 N/A
7:55 pm 19:55 Clear 50 10 36 2 58 58 N N/A 30.21 1023 10 16 N/A
8:15 pm 20:15 Clear 50 10 36 2 58 58 N 5 7 30.21 1023 10 16 N/A
8:35 pm 20:35 Clear 48 9 37 3 66 66 NNW 3 6 30.22 1023 10 16 N/A
8:55 pm 20:55 Clear 46 8 39 4 76 76 N N/A 30.23 1024 10 16 N/A
9:15 pm 21:15 Clear 46 8 39 4 76 76 N 5 7 30.23 1024 10 16 N/A
9:35 pm 21:35 Clear 48 9 37 3 66 66 N N/A 30.24 1024 10 16 N/A
9:55 pm 21:55 Clear 45 7 39 4 81 81 N N/A 30.25 1024 10 16 N/A
10:15 pm 22:15 Clear 45 7 39 4 81 81 N N/A 30.26 1025 10 16 N/A
10:35 pm 22:35 Clear 45 7 41 5 87 87 N N/A 30.26 1025 10 16 N/A
10:55 pm 22:55 Clear 43 6 39 4 87 87 N N/A 30.26 1025 10 16 N/A
11:15 pm 23:15 Clear 45 7 41 5 87 87 N N/A 30.25 1024 10 16 N/A
11:35 pm 23:35 Clear 41 5 39 4 93 93 N N/A 30.25 1025 10 16 N/A
11:55 pm 23:55 Clear 41 5 41 5 100 100 N N/A 30.25 1025 10 16 N/A

Powered by AerisWeather